Date String (YYYY-MM-DD hh:mm:ss) UTC,Instrument flags,absolute air pressure of the measurement (hPa),sample flow rate (lpm),inlet stack bypass flow (lpm),air temperature of the measurement (°C),ambient temperature measured by the external sensor (°C),aerosol sample conditioner tube jacket temperature (°C),OPC LED temperature (°C),internal box temperature (°C),relative humidity of the measurement (%),span deviation,mass concentration of particles derived from Lorenz-Mie calculation of OPC scattering (μg/m³),mass concentration of particles derived from Lorenz-Mie calculation of OPC scattering (μg/m³),mass concentration of particles derived from Lorenz-Mie calculation of OPC scattering (μg/m³)
DateTimeUTC,F1_M11,P_M11,Q1_M11,Q2_M11,T1_M11,T2_M11,T3_M11,T4_M11,T5_M11,U1_M11,ZSPAN_M11,X2_M11,X0_M11,X1_M11
2024-05-07 17:00:00,SystemResetWarning,0815.8,5.00,000.00,022.1,021.5,000.0,030.2,023.8,011.9,0000.0,0002.48,0006.73,0001.28
2024-05-07 17:01:00,SystemResetWarning,0815.9,5.00,000.00,022.2,021.6,000.0,030.2,023.8,011.8,0000.0,0002.45,0007.45,0001.27
2024-05-07 17:02:00,SystemResetWarning,0816.0,4.99,000.00,022.2,021.6,000.0,030.2,023.8,013.0,0000.0,0002.43,0006.85,0001.26
2024-05-07 17:03:00,SystemResetWarning,0816.0,5.00,000.00,022.2,021.6,000.0,030.2,023.9,012.3,0000.0,0002.38,0006.75,0001.26
2024-05-07 17:04:00,SystemResetWarning,0816.1,5.00,000.00,022.2,021.6,000.0,030.2,023.9,011.7,0000.0,0002.37,0006.71,0001.25
2024-05-07 17:05:00,SystemResetWarning,0816.0,5.01,000.00,022.2,021.6,000.0,030.2,023.9,011.9,0000.0,0002.37,0006.73,0001.25
2024-05-07 17:06:00,SystemResetWarning,0816.0,5.00,000.00,022.2,021.6,000.0,030.2,023.9,012.4,0000.0,0002.34,0006.53,0001.25
2024-05-07 17:07:00,SystemResetWarning,0816.0,5.00,000.00,022.2,021.7,000.0,030.3,023.9,012.4,0000.0,0002.31,0006.49,0001.24
2024-05-07 17:08:00,SystemResetWarning,0816.0,4.99,000.00,022.3,021.7,000.0,030.3,023.9,011.7,0000.0,0002.29,0006.37,0001.24
2024-05-07 17:09:00,SystemResetWarning,0816.0,4.98,000.00,022.3,021.7,000.0,030.3,023.9,011.3,0000.0,0002.29,0006.35,0001.23
2024-05-07 17:10:00,SystemResetWarning,0816.0,5.00,000.00,022.3,021.7,000.0,030.3,023.9,011.5,0000.0,0002.30,0006.34,0001.22
2024-05-07 17:11:00,SystemResetWarning,0816.0,5.01,000.00,022.3,021.7,000.0,030.3,024.0,011.3,0000.0,0002.23,0006.48,0001.21
2024-05-07 17:12:00,SystemResetWarning,0816.1,5.01,000.00,022.3,021.7,000.0,030.3,024.0,011.4,0000.0,0002.21,0006.26,0001.22
2024-05-07 17:13:00,SystemResetWarning,0816.0,5.00,000.00,022.3,021.8,000.0,030.4,024.0,011.3,0000.0,0002.23,0007.54,0001.24
2024-05-07 17:14:00,SystemResetWarning,0815.9,5.00,000.00,022.3,021.8,000.0,030.4,024.0,011.7,0000.0,0002.23,0007.60,0001.23
2024-05-07 17:15:00,SystemResetWarning,0816.0,5.00,000.00,022.4,021.8,000.0,030.4,024.0,011.2,0000.0,0002.22,0007.61,0001.22
2024-05-07 17:16:00,SystemResetWarning,0816.1,4.99,000.00,022.4,021.8,000.0,030.4,024.0,011.5,0000.0,0002.18,0007.52,0001.22
2024-05-07 17:17:00,SystemResetWarning,0816.1,4.99,000.00,022.4,021.8,000.0,030.4,024.1,011.8,0000.0,0002.19,0007.51,0001.21
2024-05-07 17:18:00,SystemResetWarning,0816.0,5.00,000.00,022.4,021.8,000.0,030.4,024.1,011.2,0000.0,0002.27,0007.59,0001.22
2024-05-07 17:19:00,SystemResetWarning,0816.1,5.01,000.00,022.4,021.8,000.0,030.4,024.1,011.4,0000.0,0002.31,0007.63,0001.22
2024-05-07 17:20:00,SystemResetWarning,0815.9,5.00,000.00,022.4,021.9,000.0,030.4,024.1,011.8,0000.0,0002.26,0007.56,0001.23
2024-05-07 17:21:00,SystemResetWarning,0815.9,5.00,000.00,022.4,021.9,000.0,030.5,024.1,011.6,0000.0,0002.26,0007.57,0001.22
2024-05-07 17:22:00,SystemResetWarning,0815.9,5.00,000.00,022.5,021.9,000.0,030.5,024.1,011.9,0000.0,0002.26,0007.29,0001.21
2024-05-07 17:23:00,SystemResetWarning,0815.9,5.00,000.00,022.5,021.9,000.0,030.5,024.2,011.7,0000.0,0002.23,0006.60,0001.20
2024-05-07 17:24:00,SystemResetWarning,0816.0,5.00,000.00,022.5,021.9,000.0,030.5,024.2,011.6,0000.0,0002.25,0004.90,0001.18
2024-05-07 17:25:00,SystemResetWarning,0816.1,5.01,000.00,022.5,021.9,000.0,030.5,024.2,011.8,0000.0,0002.23,0004.81,0001.19
2024-05-07 17:26:00,SystemResetWarning,0816.2,5.00,000.00,022.5,021.9,000.0,030.5,024.1,012.0,0000.0,0002.19,0005.20,0001.19
2024-05-07 17:27:00,SystemResetWarning,0816.1,5.00,000.00,022.5,021.9,000.0,030.6,024.2,012.3,0000.0,0002.22,0005.31,0001.19
2024-05-07 17:28:00,SystemResetWarning,0816.1,4.99,000.00,022.5,021.9,000.0,030.6,024.2,014.6,0000.0,0002.22,0005.63,0001.19
2024-05-07 17:29:00,SystemResetWarning,0816.1,4.99,000.00,022.5,021.9,000.0,030.6,024.2,015.9,0000.0,0002.14,0006.12,0001.18
2024-05-07 17:30:00,SystemResetWarning,0816.1,5.00,000.00,022.6,022.0,000.0,030.6,024.2,016.1,0000.0,0002.14,0006.44,0001.17
2024-05-07 17:31:00,SystemResetWarning,0816.1,5.00,000.00,022.6,022.0,000.0,030.6,024.2,016.1,0000.0,0002.16,0007.58,0001.17
2024-05-07 17:32:00,SystemResetWarning,0816.0,5.00,000.00,022.6,022.0,000.0,030.6,024.2,016.2,0000.0,0002.18,0007.55,0001.16
2024-05-07 17:33:00,SystemResetWarning,0815.9,5.00,000.00,022.6,022.0,000.0,030.6,024.2,016.3,0000.0,0002.20,0007.57,0001.17
2024-05-07 17:34:00,SystemResetWarning,0815.8,5.00,000.00,022.6,021.9,000.0,030.6,024.2,016.0,0000.0,0002.24,0007.65,0001.18
2024-05-07 17:35:00,SystemResetWarning,0815.8,4.99,000.00,022.6,021.9,000.0,030.7,024.2,015.4,0000.0,0002.38,0007.87,0001.18
2024-05-07 17:36:00,SystemResetWarning,0815.8,5.00,000.00,022.6,021.9,000.0,030.7,024.2,015.7,0000.0,0002.45,0007.94,0001.17
2024-05-07 17:37:00,SystemResetWarning,0815.9,5.01,000.00,022.6,021.9,000.0,030.7,024.2,015.9,0000.0,0002.45,0007.82,0001.15
2024-05-07 17:38:00,SystemResetWarning,0815.9,5.01,000.00,022.5,021.8,000.0,030.7,024.2,016.4,0000.0,0002.47,0008.56,0001.15
2024-05-07 17:39:00,SystemResetWarning,0815.8,4.99,000.00,022.5,021.8,000.0,030.7,024.2,016.4,0000.0,0002.52,0008.51,0001.15
2024-05-07 17:40:00,SystemResetWarning,0815.8,5.00,000.00,022.5,021.8,000.0,030.7,024.2,016.5,0000.0,0002.52,0008.19,0001.16
2024-05-07 17:41:00,SystemResetWarning,0815.8,5.00,000.00,022.5,021.8,000.0,030.8,024.2,016.5,0000.0,0002.47,0008.06,0001.15
2024-05-07 17:42:00,SystemResetWarning,0815.9,5.01,000.00,022.5,021.8,000.0,030.8,024.2,017.0,0000.0,0002.43,0007.89,0001.14
2024-05-07 17:43:00,SystemResetWarning,0815.9,5.00,000.00,022.5,021.7,000.0,030.8,024.1,016.6,0000.0,0002.39,0007.89,0001.15
2024-05-07 17:44:00,SystemResetWarning,0815.9,5.00,000.00,022.5,021.7,000.0,030.8,024.1,016.5,0000.0,0002.40,0007.93,0001.14
2024-05-07 17:45:00,SystemResetWarning,0815.9,4.99,000.00,022.5,021.7,000.0,030.8,024.1,017.1,0000.0,0002.37,0007.84,0001.14
2024-05-07 17:46:00,SystemResetWarning,0815.9,4.98,000.00,022.5,021.7,000.0,030.8,024.1,017.1,0000.0,0002.24,0007.56,0001.13
2024-05-07 17:47:00,SystemResetWarning,0815.8,5.00,000.00,022.5,021.7,000.0,030.8,024.1,016.8,0000.0,0002.19,0007.41,0001.14
2024-05-07 17:48:00,SystemResetWarning,0815.9,5.00,000.00,022.4,021.7,000.0,030.8,024.1,017.0,0000.0,0002.24,0007.31,0001.16
2024-05-07 17:49:00,SystemResetWarning,0815.9,5.00,000.00,022.4,021.7,000.0,030.8,024.1,017.0,0000.0,0002.23,0006.67,0001.16
2024-05-07 17:50:00,SystemResetWarning,0815.8,5.02,000.00,022.4,021.7,000.0,030.8,024.1,015.9,0000.0,0002.22,0007.19,0001.17
2024-05-07 17:51:00,SystemResetWarning,0815.8,5.01,000.00,022.4,021.7,000.0,030.8,024.1,016.2,0000.0,0002.23,0007.29,0001.16
2024-05-07 17:52:00,SystemResetWarning,0815.7,5.00,000.00,022.4,021.6,000.0,030.8,024.1,016.0,0000.0,0002.24,0007.25,0001.17
2024-05-07 17:53:00,SystemResetWarning,0815.7,5.00,000.00,022.4,021.6,000.0,030.8,024.1,015.8,0000.0,0002.20,0006.67,0001.16
2024-05-07 17:54:00,SystemResetWarning,0815.7,5.00,000.00,022.4,021.6,000.0,030.8,024.0,016.2,0000.0,0002.21,0007.02,0001.14
2024-05-07 17:55:00,SystemResetWarning,0815.8,5.00,000.00,022.4,021.6,000.0,030.8,024.0,016.5,0000.0,0002.17,0006.73,0001.13
2024-05-07 17:56:00,SystemResetWarning,0815.8,4.99,000.00,022.4,021.6,000.0,030.8,024.0,017.5,0000.0,0002.16,0006.65,0001.13
2024-05-07 17:57:00,SystemResetWarning,0815.8,4.99,000.00,022.4,021.6,000.0,030.8,024.0,017.6,0000.0,0002.22,0006.78,0001.13
2024-05-07 17:58:00,SystemResetWarning,0815.7,5.00,000.00,022.3,021.6,000.0,030.8,024.0,017.2,0000.0,0002.22,0006.73,0001.13
2024-05-07 17:59:00,SystemResetWarning,0815.8,5.01,000.00,022.3,021.6,000.0,030.8,024.0,017.4,0000.0,0002.24,0006.67,0001.13
